Weather History for Lawrenceville, IL

Change the Weather History Date:

Saturday, October 13, 2012

  Actual Average Record
Temperature  
Mean Temperature 63 °F 59 °F  
Max Temperature 78 °F 71 °F 81 °F (2000)
Min Temperature 47 °F 47 °F 32 °F (2006)
Degree Days  
Heating Degree Days 2 7  
Month to date heating degree days 141 77  
Since 1 July heating degree days 206 116  
Cooling Degree Days 0 1  
Month to date cooling degree days 3 23  
Year to date cooling degree days 1695 1377  
Growing Degree Days 12 (Base 50)    
Moisture  
Dew Point 55 °F    
Average Humidity 73    
Maximum Humidity 86    
Minimum Humidity 60    
Precipitation  
Precipitation 0.00 in 0.12 in 2.12 in (1978)
Month to date precipitation 1.83 1.81  
Year to date precipitation 25.50 34.35  
Sea Level Pressure  
Sea Level Pressure 30.12 in    
Wind  
Wind Speed 12 mph (SSE)    
Max Wind Speed 22 mph    
Max Gust Speed 29 mph    
Visibility 6 miles    
Events      
T = Trace of Precipitation, MM = Missing Value Source: NWS Daily Summary

Daily Weather History Graph

Daily Weather History Graph

Search for Another Location

Airport:

Trip Planner

Search our weather history database for the weather conditions in past years. The results will help you decide how hot, cold, wet, or windy it might be!

Date:

Astronomy

Oct. 13, 2012 Rise Set
Actual Time 6:58 AM CDT 6:14 PM CDT
Civil Twilight 6:31 AM CDT 6:40 PM CDT
Nautical Twilight 6:00 AM CDT 7:11 PM CDT
Astronomical Twilight 5:29 AM CDT 7:42 PM CDT
Moon 4:48 AM CDT (10/13) 4:57 PM CDT (10/13)
Length of Visible Light 12h 09m
Length of Day
11h 15m
Waning Crescent, 5% of the Moon is Illuminated
Oct 13
Waning Crescent
Oct 15
New
Oct 21
First Quarter
Oct 29
Full
Nov 6
Last Quarter

Hourly Weather History & Observations

Time (CDT) Temp. Dew Point Humidity Pressure Visibility Wind Dir Wind Speed Gust Speed Precip Events Conditions
12:53 AM 52.0 °F 44.1 °F 74% 30.27 in 9.0 mi ESE 6.9 mph - N/A   Mostly Cloudy
1:53 AM 52.0 °F 45.0 °F 77% 30.27 in 8.0 mi SE 4.6 mph - N/A   Partly Cloudy
2:53 AM 48.9 °F 44.1 °F 83% 30.25 in 7.0 mi ESE 6.9 mph - N/A   Clear
3:53 AM 48.0 °F 44.1 °F 86% 30.23 in 6.0 mi ESE 4.6 mph - N/A   Clear
4:53 AM 48.0 °F 44.1 °F 86% 30.21 in 5.0 mi ESE 6.9 mph - N/A   Clear
5:53 AM 48.0 °F 44.1 °F 86% 30.20 in 6.0 mi SE 5.8 mph - N/A   Clear
6:53 AM 48.9 °F 45.0 °F 86% 30.20 in 6.0 mi SE 6.9 mph - N/A   Clear
7:53 AM 52.0 °F 46.9 °F 83% 30.19 in 5.0 mi SE 6.9 mph - N/A   Haze
8:18 AM 53.6 °F 46.4 °F 77% 30.18 in 6.0 mi South 9.2 mph - N/A   Haze
8:53 AM 55.0 °F 50.0 °F 83% 30.18 in 6.0 mi South 9.2 mph - N/A   Haze
9:53 AM 60.1 °F 54.0 °F 80% 30.15 in 5.0 mi SSE 10.4 mph - N/A   Haze
10:24 AM 64.4 °F 55.4 °F 73% 30.14 in 5.0 mi South 15.0 mph - N/A   Haze
10:53 AM 66.0 °F 57.0 °F 73% 30.14 in 5.0 mi South 13.8 mph - N/A   Haze
11:28 AM 66.2 °F 59.0 °F 78% 30.13 in 5.0 mi South 12.7 mph - N/A   Haze
11:53 AM 69.1 °F 59.0 °F 70% 30.12 in 5.0 mi South 13.8 mph - N/A   Haze
12:53 PM 73.0 °F 61.0 °F 66% 30.09 in 6.0 mi South 17.3 mph - N/A   Haze
1:34 PM 73.4 °F 62.6 °F 69% 30.07 in 6.0 mi South 13.8 mph - N/A   Haze
1:53 PM 73.9 °F 62.1 °F 66% 30.06 in 6.0 mi South 13.8 mph - N/A   Haze
2:37 PM 75.2 °F 62.6 °F 65% 30.04 in 5.0 mi SSW 16.1 mph 21.9 mph N/A   Haze
3:10 PM 77.0 °F 64.4 °F 65% 30.02 in 6.0 mi South 16.1 mph 23.0 mph N/A   Haze
3:53 PM 77.0 °F 63.0 °F 62% 30.01 in 6.0 mi South 19.6 mph 28.8 mph N/A   Haze
4:53 PM 77.0 °F 62.1 °F 60% 30.00 in 6.0 mi South 12.7 mph 23.0 mph N/A   Haze
5:53 PM 75.0 °F 62.1 °F 64% 29.99 in 6.0 mi SSW 11.5 mph - N/A   Haze
7:53 PM 71.1 °F 62.1 °F 73% 29.99 in 7.0 mi South 10.4 mph - N/A   Clear
9:53 PM 70.0 °F 61.0 °F 73% 29.96 in 7.0 mi South 12.7 mph - N/A   Clear
10:53 PM 69.1 °F 60.1 °F 73% 29.95 in 7.0 mi South 11.5 mph - N/A   Mostly Cloudy